Time,TemperatureF,DewpointF,PressureIn,WindDirection,WindDirectionDegrees,WindSpeedMPH,WindSpeedGustMPH,Humidity,HourlyPrecipIn,Conditions,Clouds,dailyrainin,SoftwareType,DateUTC
2013-07-01 00:02:00,39.0,36.0,30.13,NE,50,0.0,-999.0,89,-99.99,,,-99.99,,2013-07-01 06:02:00,
2013-07-01 00:12:00,39.0,36.0,30.13,NE,50,0.0,-999.0,89,-99.99,,,-99.99,,2013-07-01 06:12:00,
2013-07-01 00:24:00,39.0,36.0,30.13,NE,50,0.0,-999.0,89,-99.99,,,-99.99,,2013-07-01 06:24:00,
2013-07-01 00:33:00,38.0,35.0,30.14,NE,50,0.0,-999.0,89,-99.99,,,-99.99,,2013-07-01 06:33:00,
2013-07-01 00:43:00,38.0,35.0,30.14,NE,50,0.0,-999.0,90,-99.99,,,-99.99,,2013-07-01 06:43:00,
2013-07-01 00:53:00,38.0,35.0,30.14,NE,50,0.0,-999.0,90,-99.99,,,-99.99,,2013-07-01 06:53:00,
2013-07-01 01:01:00,37.0,34.0,30.14,NE,50,0.0,-999.0,89,-99.99,,,-99.99,,2013-07-01 07:01:00,
2013-07-01 01:11:00,37.0,34.0,30.14,NE,50,0.0,-999.0,89,-99.99,,,-99.99,,2013-07-01 07:11:00,
2013-07-01 01:22:00,37.0,34.0,30.14,NE,50,0.0,-999.0,89,-99.99,,,-99.99,,2013-07-01 07:22:00,
2013-07-01 01:33:00,36.0,33.0,30.14,NE,50,0.0,-999.0,89,-99.99,,,-99.99,,2013-07-01 07:33:00,
2013-07-01 01:43:00,36.0,33.0,30.14,NE,50,0.0,-999.0,90,-99.99,,,-99.99,,2013-07-01 07:43:00,
2013-07-01 01:53:00,36.0,33.0,30.14,NE,50,0.0,-999.0,90,-99.99,,,-99.99,,2013-07-01 07:53:00,
2013-07-01 02:11:00,35.0,32.0,30.13,NE,50,0.0,-999.0,90,-99.99,,,-99.99,,2013-07-01 08:11:00,
2013-07-01 02:22:00,35.0,32.0,30.13,NE,50,0.0,-999.0,90,-99.99,,,-99.99,,2013-07-01 08:22:00,
2013-07-01 02:33:00,35.0,33.0,30.14,NE,50,0.0,-999.0,91,-99.99,,,-99.99,,2013-07-01 08:33:00,
2013-07-01 02:42:00,35.0,32.0,30.13,NE,50,0.0,-999.0,90,-99.99,,,-99.99,,2013-07-01 08:42:00,
2013-07-01 02:52:00,35.0,32.0,30.13,NE,50,0.0,-999.0,90,-99.99,,,-99.99,,2013-07-01 08:52:00,
2013-07-01 03:02:00,34.0,31.0,30.13,NE,50,0.0,-999.0,90,-99.99,,,-99.99,,2013-07-01 09:02:00,
2013-07-01 03:11:00,34.0,32.0,30.13,NE,50,0.0,-999.0,91,-99.99,,,-99.99,,2013-07-01 09:11:00,
2013-07-01 03:22:00,34.0,32.0,30.13,NE,50,0.0,-999.0,91,-99.99,,,-99.99,,2013-07-01 09:22:00,
2013-07-01 03:34:00,34.0,32.0,30.13,NE,50,0.0,-999.0,91,-99.99,,,-99.99,,2013-07-01 09:34:00,
2013-07-01 03:43:00,34.0,32.0,30.13,NE,50,0.0,-999.0,91,-99.99,,,-99.99,,2013-07-01 09:43:00,
2013-07-01 03:53:00,34.0,32.0,30.13,NE,50,0.0,-999.0,91,-99.99,,,-99.99,,2013-07-01 09:53:00,
2013-07-01 04:03:00,34.0,32.0,30.14,NE,50,0.0,-999.0,91,-99.99,,,-99.99,,2013-07-01 10:03:00,
2013-07-01 04:11:00,34.0,32.0,30.14,NE,50,0.0,-999.0,91,-99.99,,,-99.99,,2013-07-01 10:11:00,
2013-07-01 04:22:00,34.0,32.0,30.14,NE,50,0.0,-999.0,91,-99.99,,,-99.99,,2013-07-01 10:22:00,
2013-07-01 04:33:00,34.0,32.0,30.14,NE,50,0.0,-999.0,91,-99.99,,,-99.99,,2013-07-01 10:33:00,
2013-07-01 04:42:00,34.0,32.0,30.14,NE,50,0.0,-999.0,91,-99.99,,,-99.99,,2013-07-01 10:42:00,
2013-07-01 04:52:00,34.0,32.0,30.14,NE,50,0.0,-999.0,91,-99.99,,,-99.99,,2013-07-01 10:52:00,
2013-07-01 05:02:00,34.0,32.0,30.14,NE,50,0.0,-999.0,91,-99.99,,,-99.99,,2013-07-01 11:02:00,
2013-07-01 05:11:00,33.0,31.0,30.14,NE,50,0.0,-999.0,91,-99.99,,,-99.99,,2013-07-01 11:11:00,
2013-07-01 05:22:00,33.0,31.0,30.14,NE,50,0.0,-999.0,91,-99.99,,,-99.99,,2013-07-01 11:22:00,
2013-07-01 05:33:00,33.0,31.0,30.15,NE,50,0.0,-999.0,92,-99.99,,,-99.99,,2013-07-01 11:33:00,
2013-07-01 05:43:00,33.0,31.0,30.15,NE,50,0.0,-999.0,92,-99.99,,,-99.99,,2013-07-01 11:43:00,
2013-07-01 05:52:00,33.0,31.0,30.15,NE,50,0.0,-999.0,92,-99.99,,,-99.99,,2013-07-01 11:52:00,
2013-07-01 06:01:00,33.0,31.0,30.16,NE,50,0.0,-999.0,91,-99.99,,,-99.99,,2013-07-01 12:01:00,
2013-07-01 06:11:00,33.0,31.0,30.16,NE,50,0.0,-999.0,92,-99.99,,,-99.99,,2013-07-01 12:11:00,
2013-07-01 06:22:00,33.0,31.0,30.16,NE,50,0.0,-999.0,92,-99.99,,,-99.99,,2013-07-01 12:22:00,
2013-07-01 06:33:00,34.0,32.0,30.17,NE,50,0.0,-999.0,92,-99.99,,,-99.99,,2013-07-01 12:33:00,
2013-07-01 06:43:00,34.0,32.0,30.16,NE,50,0.0,-999.0,92,-99.99,,,-99.99,,2013-07-01 12:43:00,
2013-07-01 06:53:00,34.0,32.0,30.16,NE,50,0.0,-999.0,92,-99.99,,,-99.99,,2013-07-01 12:53:00,
2013-07-01 07:01:00,35.0,33.0,30.17,NE,50,0.0,-999.0,93,-99.99,,,-99.99,,2013-07-01 13:01:00,
2013-07-01 07:12:00,36.0,34.0,30.16,NE,50,0.0,-999.0,93,-99.99,,,-99.99,,2013-07-01 13:12:00,
2013-07-01 07:23:00,36.0,34.0,30.16,NE,50,0.0,-999.0,93,-99.99,,,-99.99,,2013-07-01 13:23:00,
2013-07-01 07:33:00,38.0,36.0,30.16,NE,50,0.0,-999.0,94,-99.99,,,-99.99,,2013-07-01 13:33:00,
2013-07-01 07:43:00,40.0,38.0,30.16,NE,50,0.0,-999.0,94,-99.99,,,-99.99,,2013-07-01 13:43:00,
2013-07-01 07:53:00,40.0,38.0,30.16,NE,50,0.0,-999.0,94,-99.99,,,-99.99,,2013-07-01 13:53:00,
2013-07-01 08:01:00,42.0,40.0,30.15,NE,50,0.0,-999.0,94,-99.99,,,-99.99,,2013-07-01 14:01:00,
2013-07-01 08:11:00,44.0,42.0,30.15,NE,50,0.0,-999.0,94,-99.99,,,-99.99,,2013-07-01 14:11:00,
2013-07-01 08:22:00,44.0,42.0,30.15,NE,50,0.0,-999.0,94,-99.99,,,-99.99,,2013-07-01 14:22:00,
2013-07-01 08:34:00,47.0,41.0,30.15,NE,50,0.0,-999.0,80,-99.99,,,-99.99,,2013-07-01 14:34:00,
2013-07-01 08:43:00,50.0,42.0,30.15,WSW,245,0.0,-999.0,73,-99.99,,,-99.99,,2013-07-01 14:43:00,
2013-07-01 08:52:00,50.0,42.0,30.15,WSW,245,0.0,-999.0,73,-99.99,,,-99.99,,2013-07-01 14:52:00,
2013-07-01 09:02:00,53.0,37.0,30.15,SW,220,1.0,-999.0,55,-99.99,,,-99.99,,2013-07-01 15:02:00,
2013-07-01 09:11:00,55.0,38.0,30.15,West,273,1.0,-999.0,52,-99.99,,,-99.99,,2013-07-01 15:11:00,
2013-07-01 09:23:00,55.0,38.0,30.15,West,273,1.0,-999.0,52,-99.99,,,-99.99,,2013-07-01 15:23:00,
2013-07-01 09:34:00,56.0,36.0,30.15,South,191,1.0,-999.0,47,-99.99,,,-99.99,,2013-07-01 15:34:00,
2013-07-01 09:43:00,58.0,35.0,30.15,West,268,2.0,-999.0,42,-99.99,,,-99.99,,2013-07-01 15:43:00,
2013-07-01 09:52:00,58.0,35.0,30.15,West,268,2.0,-999.0,42,-99.99,,,-99.99,,2013-07-01 15:52:00,
2013-07-01 10:01:00,59.0,33.0,30.15,SSW,205,2.0,-999.0,38,-99.99,,,-99.99,,2013-07-01 16:01:00,
2013-07-01 10:11:00,60.0,34.0,30.14,SSW,202,1.0,-999.0,38,-99.99,,,-99.99,,2013-07-01 16:11:00,
2013-07-01 10:22:00,60.0,34.0,30.14,SSW,202,1.0,-999.0,38,-99.99,,,-99.99,,2013-07-01 16:22:00,
2013-07-01 10:33:00,60.0,33.0,30.14,SSW,210,1.0,-999.0,36,-99.99,,,-99.99,,2013-07-01 16:33:00,
2013-07-01 10:44:00,61.0,32.0,30.14,SSW,196,2.0,-999.0,34,-99.99,,,-99.99,,2013-07-01 16:44:00,
2013-07-01 10:53:00,61.0,32.0,30.14,SSW,196,2.0,-999.0,34,-99.99,,,-99.99,,2013-07-01 16:53:00,
2013-07-01 11:02:00,61.0,33.0,30.14,SSE,150,2.0,-999.0,35,-99.99,,,-99.99,,2013-07-01 17:02:00,
2013-07-01 11:12:00,62.0,35.0,30.14,SW,222,2.0,-999.0,36,-99.99,,,-99.99,,2013-07-01 17:12:00,
2013-07-01 11:23:00,62.0,35.0,30.14,SW,222,2.0,-999.0,36,-99.99,,,-99.99,,2013-07-01 17:23:00,
2013-07-01 11:33:00,62.0,33.0,30.14,WSW,255,2.0,-999.0,33,-99.99,,,-99.99,,2013-07-01 17:33:00,
2013-07-01 11:43:00,63.0,34.0,30.14,WNW,285,2.0,-999.0,34,-99.99,,,-99.99,,2013-07-01 17:43:00,
2013-07-01 11:53:00,63.0,34.0,30.14,WNW,285,2.0,-999.0,34,-99.99,,,-99.99,,2013-07-01 17:53:00,
2013-07-01 12:02:00,64.0,34.0,30.12,South,190,2.0,-999.0,32,-99.99,,,-99.99,,2013-07-01 18:02:00,
2013-07-01 12:11:00,65.0,34.0,30.12,West,259,2.0,-999.0,31,-99.99,,,-99.99,,2013-07-01 18:11:00,
2013-07-01 12:22:00,65.0,34.0,30.12,West,259,2.0,-999.0,31,-99.99,,,-99.99,,2013-07-01 18:22:00,
2013-07-01 12:33:00,65.0,32.0,30.12,WSW,258,3.0,-999.0,29,-99.99,,,-99.99,,2013-07-01 18:33:00,
2013-07-01 12:43:00,65.0,33.0,30.11,SSW,199,3.0,-999.0,30,-99.99,,,-99.99,,2013-07-01 18:43:00,
2013-07-01 12:52:00,65.0,33.0,30.11,SSW,199,3.0,-999.0,30,-99.99,,,-99.99,,2013-07-01 18:52:00,
2013-07-01 13:01:00,65.0,34.0,30.11,SSW,194,2.0,-999.0,31,-99.99,,,-99.99,,2013-07-01 19:01:00,
2013-07-01 13:11:00,67.0,35.0,30.11,WSW,255,1.0,-999.0,30,-99.99,,,-99.99,,2013-07-01 19:11:00,
2013-07-01 13:22:00,67.0,35.0,30.11,WSW,255,1.0,-999.0,30,-99.99,,,-99.99,,2013-07-01 19:22:00,
2013-07-01 13:33:00,67.0,33.0,30.11,SSW,207,1.0,-999.0,28,-99.99,,,-99.99,,2013-07-01 19:33:00,
2013-07-01 13:44:00,67.0,31.0,30.11,West,275,2.0,-999.0,26,-99.99,,,-99.99,,2013-07-01 19:44:00,
2013-07-01 13:52:00,67.0,31.0,30.11,West,275,2.0,-999.0,26,-99.99,,,-99.99,,2013-07-01 19:52:00,
2013-07-01 14:02:00,66.0,33.0,30.11,East,98,2.0,-999.0,29,-99.99,,,-99.99,,2013-07-01 20:02:00,
2013-07-01 14:11:00,66.0,30.0,30.11,WSW,245,2.0,-999.0,26,-99.99,,,-99.99,,2013-07-01 20:11:00,
2013-07-01 14:22:00,66.0,30.0,30.11,WSW,245,2.0,-999.0,26,-99.99,,,-99.99,,2013-07-01 20:22:00,
2013-07-01 14:34:00,66.0,31.0,30.10,WNW,282,1.0,-999.0,27,-99.99,,,-99.99,,2013-07-01 20:34:00,
2013-07-01 15:34:00,62.0,42.0,30.10,WNW,291,1.0,-999.0,48,-99.99,,,-99.99,,2013-07-01 21:34:00,
2013-07-01 16:33:00,60.0,42.0,30.10,West,279,1.0,-999.0,51,-99.99,,,-99.99,,2013-07-01 22:33:00,
2013-07-01 16:43:00,60.0,42.0,30.10,West,279,1.0,-999.0,51,-99.99,,,-99.99,,2013-07-01 22:43:00,
2013-07-01 16:53:00,60.0,42.0,30.10,West,279,1.0,-999.0,51,-99.99,,,-99.99,,2013-07-01 22:53:00,
2013-07-01 17:01:00,59.0,42.0,30.11,WNW,282,0.0,-999.0,54,-99.99,,,-99.99,,2013-07-01 23:01:00,
2013-07-01 17:11:00,58.0,42.0,30.11,SW,225,1.0,-999.0,55,-99.99,,,-99.99,,2013-07-01 23:11:00,
2013-07-01 17:22:00,58.0,42.0,30.11,SW,225,1.0,-999.0,55,-99.99,,,-99.99,,2013-07-01 23:22:00,
2013-07-01 17:33:00,55.0,42.0,30.12,WSW,257,1.0,-999.0,62,-99.99,,,-99.99,,2013-07-01 23:33:00,
2013-07-01 18:33:00,52.0,45.0,30.10,South,176,0.0,-999.0,78,-99.99,,,-99.99,,2013-07-02 00:33:00,
2013-07-01 18:43:00,53.0,43.0,30.09,NNE,32,0.0,-999.0,70,-99.99,,,-99.99,,2013-07-02 00:43:00,
2013-07-01 18:53:00,53.0,43.0,30.09,NNE,32,0.0,-999.0,70,-99.99,,,-99.99,,2013-07-02 00:53:00,
2013-07-01 19:01:00,53.0,45.0,30.08,NNE,32,0.0,-999.0,73,-99.99,,,-99.99,,2013-07-02 01:01:00,
2013-07-01 19:11:00,53.0,45.0,30.07,NNE,32,0.0,-999.0,75,-99.99,,,-99.99,,2013-07-02 01:11:00,
2013-07-01 19:22:00,53.0,45.0,30.07,NNE,32,0.0,-999.0,75,-99.99,,,-99.99,,2013-07-02 01:22:00,
2013-07-01 19:33:00,53.0,45.0,30.09,NNE,28,0.0,-999.0,73,-99.99,,,-99.99,,2013-07-02 01:33:00,
2013-07-01 19:43:00,53.0,45.0,30.10,SW,221,0.0,-999.0,73,-99.99,,,-99.99,,2013-07-02 01:43:00,
2013-07-01 19:53:00,53.0,45.0,30.10,SW,221,0.0,-999.0,73,-99.99,,,-99.99,,2013-07-02 01:53:00,
2013-07-01 20:02:00,52.0,43.0,30.10,West,263,0.0,-999.0,71,-99.99,,,-99.99,,2013-07-02 02:02:00,
2013-07-01 20:11:00,51.0,43.0,30.11,West,263,0.0,-999.0,73,-99.99,,,-99.99,,2013-07-02 02:11:00,
2013-07-01 20:22:00,51.0,43.0,30.11,West,263,0.0,-999.0,73,-99.99,,,-99.99,,2013-07-02 02:22:00,
2013-07-01 20:33:00,50.0,43.0,30.13,West,263,0.0,-999.0,76,-99.99,,,-99.99,,2013-07-02 02:33:00,
2013-07-01 20:43:00,50.0,44.0,30.13,WSW,250,0.0,-999.0,79,-99.99,,,-99.99,,2013-07-02 02:43:00,
2013-07-01 20:53:00,50.0,44.0,30.13,WSW,250,0.0,-999.0,79,-99.99,,,-99.99,,2013-07-02 02:53:00,
2013-07-01 21:01:00,49.0,43.0,30.14,WSW,250,0.0,-999.0,80,-99.99,,,-99.99,,2013-07-02 03:01:00,
2013-07-01 21:12:00,49.0,44.0,30.14,WSW,250,0.0,-999.0,82,-99.99,,,-99.99,,2013-07-02 03:12:00,
2013-07-01 21:24:00,49.0,44.0,30.14,WSW,250,0.0,-999.0,82,-99.99,,,-99.99,,2013-07-02 03:24:00,
2013-07-01 21:32:00,48.0,43.0,30.14,East,93,0.0,-999.0,82,-99.99,,,-99.99,,2013-07-02 03:32:00,
2013-07-01 21:43:00,48.0,43.0,30.15,East,93,0.0,-999.0,83,-99.99,,,-99.99,,2013-07-02 03:43:00,
2013-07-01 21:53:00,48.0,43.0,30.15,East,93,0.0,-999.0,83,-99.99,,,-99.99,,2013-07-02 03:53:00,
2013-07-01 22:02:00,47.0,42.0,30.16,East,93,0.0,-999.0,84,-99.99,,,-99.99,,2013-07-02 04:02:00,
2013-07-01 22:11:00,46.0,42.0,30.16,East,93,0.0,-999.0,85,-99.99,,,-99.99,,2013-07-02 04:11:00,
2013-07-01 22:22:00,46.0,42.0,30.16,East,93,0.0,-999.0,85,-99.99,,,-99.99,,2013-07-02 04:22:00,
2013-07-01 22:32:00,46.0,42.0,30.16,East,93,0.0,-999.0,85,-99.99,,,-99.99,,2013-07-02 04:32:00,
2013-07-01 22:42:00,46.0,42.0,30.16,East,93,0.0,-999.0,85,-99.99,,,-99.99,,2013-07-02 04:42:00,
2013-07-01 22:53:00,44.0,40.0,30.16,East,93,0.0,-999.0,86,-99.99,,,-99.99,,2013-07-02 04:53:00,
2013-07-01 23:01:00,44.0,40.0,30.16,East,93,0.0,-999.0,86,-99.99,,,-99.99,,2013-07-02 05:01:00,
2013-07-01 23:11:00,43.0,39.0,30.17,East,93,0.0,-999.0,87,-99.99,,,-99.99,,2013-07-02 05:11:00,
2013-07-01 23:22:00,43.0,39.0,30.17,East,93,0.0,-999.0,87,-99.99,,,-99.99,,2013-07-02 05:22:00,
2013-07-01 23:32:00,42.0,39.0,30.16,East,93,0.0,-999.0,88,-99.99,,,-99.99,,2013-07-02 05:32:00,
2013-07-01 23:43:00,42.0,39.0,30.18,East,93,0.0,-999.0,89,-99.99,,,-99.99,,2013-07-02 05:43:00,
2013-07-01 23:53:00,42.0,39.0,30.18,East,93,0.0,-999.0,89,-99.99,,,-99.99,,2013-07-02 05:53:00,